Wind_Speed
62 61 61 62 64 63 64 60 63 58 58 48 55 56 59 61 64 67 69 71 72 73 73 72 73 74 74 75 77 78 78 79 79 80 83 85 83 82 78 75 74 73 72 71
70 67 67 69 68 61 62 61 58 54 55 57 63 65 65 64 65 66 68 69 71 72 73 74 75 75 75 74 74 76 77 78 81 80 77 77 77 76 76 76 76 77 78 80
70 67 70 73 67 66 61 56 57 61 63 66 67 67 67 66 66 66 67 68 69 71 72 71 70 73 73 73 73 75 76 76 76 75 75 75 76 78 80 82 84 85 83 81
70 68 71 65 63 64 66 66 66 65 67 67 67 68 68 69 67 65 66 65 65 66 68 71 70 70 70 71 72 72 73 74 74 75 76 79 82 85 87 83 78 75 71 68
69 68 70 70 70 70 69 67 67 65 66 67 68 69 65 64 65 65 65 68 67 68 69 67 68 71 72 71 72 74 76 75 77 80 84 87 85 77 72 69 66 63 60 57
67 67 68 69 69 66 65 67 69 67 65 65 60 60 64 64 64 66 68 70 66 63 64 67 69 70 70 72 74 76 79 81 86 85 79 72 69 67 62 58 54 51 47 44
63 65 67 68 68 67 65 62 61 64 68 66 63 67 66 66 67 61 52 59 64 64 65 70 69 70 73 76 79 83 84 77 72 69 68 67 61 55 52 49 47 45 44 43
66 69 67 67 66 65 67 65 66 66 65 64 66 69 67 60 57 55 57 62 62 64 67 67 71 76 79 80 73 66 64 63 63 62 59 55 51 48 47 47 45 43 42 44
64 62 59 66 64 64 64 65 65 67 68 66 61 57 54 53 55 55 56 56 64 67 68 73 76 74 66 60 61 60 57 55 52 51 51 50 48 47 46 46 46 46 46 46
61 54 58 56 59 60 62 61 60 58 55 54 52 51 51 53 55 58 62 64 66 70 72 64 57 59 62 60 57 54 52 50 50 48 47 47 46 46 46 46 46 47 47 45
56 57 56 57 54 52 51 52 53 54 56 57 57 55 53 52 54 56 60 64 62 56 49 53 58 60 60 54 49 47 48 46 46 44 45 46 48 49 48 47 44 41 37 39
48 46 46 46 45 47 50 52 53 52 51 53 54 53 53 53 52 50 46 42 42 48 53 57 58 53 46 43 45 44 43 42 43 48 48 44 40 36 35 32 32 35 34 33
40 40 40 40 42 43 45 49 51 52 50 50 50 49 47 40 34 37 43 45 47 51 54 55 47 42 43 44 42 41 39 43 46 41 35 34 32 29 30 32 32 32 30 26
36 36 37 39 40 42 44 46 45 45 46 48 49 45 35 29 33 39 43 46 49 52 51 45 41 42 44 41 40 38 41 44 39 34 33 31 29 28 27 25 24 28 30 26
33 34 34 34 36 39 41 40 38 41 42 42 41 35 27 29 34 39 43 47 49 49 46 40 39 42 42 40 38 37 42 38 34 32 29 29 27 25 26 28 26 24 22 21
32 32 32 32 34 38 39 37 37 37 35 34 31 29 31 34 38 42 45 48 49 46 41 37 38 41 39 37 36 37 37 34 33 30 28 26 25 27 27 25 21 16 13 12
29 28 30 31 34 36 38 38 37 36 35 34 34 35 36 38 39 42 45 48 48 46 39 35 37 39 37 34 33 36 33 32 31 30 27 25 27 27 23 16 13 12 13 12
30 30 32 34 35 35 36 36 36 38 38 36 37 37 37 39 41 43 45 48 46 44 39 34 35 37 34 32 30 33 30 29 29 27 25 26 26 23 14 11 11 13 13 10
32 33 35 38 41 42 41 41 40 41 42 42 41 41 41 41 43 45 47 49 45 41 36 32 34 35 31 31 29 32 28 27 27 26 24 26 25 16 10 10 10 10 9 9
41 41 42 42 43 44 43 44 44 45 46 47 48 47 46 47 47 49 49 48 45 40 34 29 31 32 30 28 29 30 26 26 25 25 25 25 22 13 10 8 7 7 6 5
43 43 44 44 44 45 44 44 43 44 46 48 49 50 49 48 49 49 48 48 43 38 35 29 29 31 29 27 28 28 25 24 23 23 24 23 21 13 10 8 7 6 5 4
45 45 47 47 46 45 46 46 47 47 48 49 50 50 48 47 44 43 45 47 41 35 33 29 27 29 28 27 26 27 24 22 21 21 23 21 18 16 12 9 10 9 6 4
52 53 52 50 47 47 47 47 48 49 48 48 49 48 45 43 38 38 37 41 40 35 31 27 25 26 27 26 25 26 23 21 20 21 22 20 18 17 14 11 11 10 9 7
58 57 55 53 51 50 49 51 49 50 51 50 46 44 42 40 36 37 39 38 36 33 29 27 25 24 27 26 24 25 22 20 20 20 21 19 17 16 15 12 11 10 9 9
50 51 50 50 51 50 50 51 52 53 52 49 46 45 43 42 41 38 39 38 37 32 27 27 25 24 25 24 23 23 22 19 18 19 19 19 18 18 16 12 10 11 11 11
56 60 58 58 57 55 54 54 53 51 48 45 42 39 37 38 39 40 40 38 34 30 26 25 25 25 24 23 22 22 21 19 17 17 17 17 16 15 16 14 12 12 13 13
63 65 62 58 56 57 58 56 53 50 49 46 40 38 38 38 37 38 38 36 34 29 27 25 24 24 22 22 21 21 21 18 16 16 16 16 15 14 15 15 17 18 13 14
Wind_Direction
300 300 297 297 297 299 301 300 296 302 295 297 291 292 290 292 292 291 290 290 289 289 289 288 288 287 286 285 284 283 284 285 286 288 289 292 294 294 295 294 292 290 289 288
297 296 295 294 295 298 296 297 297 295 297 292 293 293 292 292 289 287 286 284 283 283 282 281 280 280 281 282 283 285 286 289 292 293 294 294 296 296 294 293 291 290 289 288
298 298 297 296 299 298 297 297 299 299 297 296 294 293 292 290 287 285 282 279 280 280 281 283 286 286 288 289 290 290 291 293 294 296 297 295 294 293 292 292 291 291 290 287
297 297 298 301 301 300 300 300 299 297 295 293 291 290 290 288 286 285 284 288 291 292 292 296 298 298 297 297 295 296 298 298 298 296 294 294 293 293 293 293 291 289 287 285
296 297 297 295 296 295 296 294 292 291 290 289 287 285 283 285 289 291 292 293 293 293 298 299 298 298 300 299 299 298 298 297 294 292 294 295 296 295 294 293 292 289 287 285
295 292 293 294 294 294 294 290 291 289 286 288 289 291 294 296 294 294 295 296 297 297 297 298 300 297 296 296 296 295 296 295 297 298 297 296 296 296 295 293 291 290 288 286
292 291 289 290 292 290 290 291 289 293 295 295 291 292 294 294 297 300 291 289 291 294 299 298 294 291 294 295 296 297 299 299 297 297 297 298 297 296 295 294 294 292 290 285
291 289 290 292 290 292 291 291 292 293 294 294 293 294 299 301 299 293 285 291 296 297 296 290 289 291 296 302 301 299 299 299 299 299 299 299 298 297 296 295 293 290 290 289
284 286 289 290 290 291 293 294 294 295 296 298 300 301 299 296 293 295 295 291 292 293 292 298 300 301 300 301 302 303 303 304 304 304 302 301 299 298 296 294 292 290 287 289
287 290 287 290 293 295 294 296 300 301 300 299 299 296 294 292 289 289 289 288 288 291 295 299 300 303 307 307 308 306 307 308 307 305 302 300 298 297 296 294 292 292 289 291
289 289 293 294 296 297 298 298 298 298 297 297 298 299 298 295 293 289 289 292 296 299 302 306 310 312 310 310 309 309 310 308 307 306 304 301 299 298 297 295 294 293 293 293
290 292 292 294 296 296 297 297 297 299 302 303 305 305 304 302 302 302 306 309 309 309 310 312 315 314 314 314 313 312 311 311 309 308 306 305 304 305 303 302 300 299 300 299
291 291 291 293 295 297 298 299 302 308 310 310 309 309 311 314 318 317 314 313 314 313 314 316 316 315 317 318 316 315 313 314 315 314 313 313 311 308 307 308 307 306 306 306
291 293 295 297 299 299 300 305 309 311 313 313 313 312 314 319 320 320 319 319 317 316 316 317 316 317 321 320 318 317 316 319 319 317 315 315 314 314 313 312 310 309 310 312
291 292 295 297 298 301 304 307 312 313 315 317 318 316 312 318 319 319 319 320 320 318 318 317 316 320 322 320 319 318 321 322 321 319 318 318 318 318 317 315 313 308 307 310
293 295 297 303 303 304 306 308 310 311 314 318 318 316 316 317 317 318 317 318 321 320 318 317 318 321 321 320 319 320 324 325 325 323 322 322 322 321 320 318 317 318 322 321
291 294 297 299 295 296 299 300 299 303 305 308 310 311 314 317 317 320 320 320 322 321 319 317 319 322 321 319 318 323 324 324 325 323 323 324 324 324 324 326 330 333 333 330
296 298 298 298 297 296 298 298 293 295 301 306 308 311 315 318 320 319 320 322 322 320 318 316 319 322 321 319 318 324 325 325 325 323 323 325 326 330 333 337 333 332 333 337
296 298 298 297 298 301 302 302 302 296 295 299 302 305 310 314 317 320 318 322 321 319 315 314 319 323 322 321 320 324 323 324 325 324 323 325 329 328 327 332 335 338 342 345
304 305 305 303 300 299 299 299 300 301 299 295 295 297 300 303 308 313 315 317 317 316 315 312 318 323 324 321 319 323 321 323 325 322 320 323 329 322 322 332 340 343 338 339
300 299 297 296 295 294 295 296 296 297 298 298 298 297 296 296 300 305 309 310 312 313 314 310 315 323 324 322 317 322 320 320 321 319 321 324 330 324 309 321 325 318 317 297
295 298 299 297 293 290 291 292 294 296 297 296 295 295 296 296 297 298 301 305 307 307 311 307 309 320 323 321 315 320 317 318 320 319 321 323 330 325 308 310 325 328 324 298
297 297 297 295 290 288 288 291 293 296 298 297 294 293 293 293 292 290 292 299 302 303 307 304 302 314 321 320 313 317 315 315 317 317 321 324 330 329 319 297 298 307 304 291
298 299 298 297 294 289 289 292 296 300 301 299 296 288 287 287 283 285 289 295 295 296 299 304 300 306 317 316 310 312 313 312 314 313 320 323 329 332 330 308 291 287 281 271
301 303 303 301 299 297 294 292 294 299 300 300 298 292 288 283 278 274 279 286 290 289 292 299 299 300 308 310 307 306 311 309 310 309 317 323 331 336 335 326 293 274 267 260
299 304 306 303 300 297 296 295 295 295 293 293 296 289 284 282 278 277 279 279 279 281 284 290 295 294 297 304 304 298 308 309 304 301 307 318 326 335 338 341 332 292 265 258
299 299 300 298 296 296 295 294 292 291 292 291 287 290 286 277 277 277 274 274 271 273 275 280 287 289 287 295 298 294 298 306 299 297 298 312 321 329 335 339 336 327 291 252
Height
5686 5684 5677 5672 5666 5663 5656 5653 5643 5645 5633 5634 5624 5620 5614 5611 5605 5599 5594 5589 5583 5577 5570 5564 5557 5551 5544 5537 5530 5522 5516 5510 5504 5498 5492 5488 5482 5477 5473 5469 5465 5461 5459 5457
5669 5666 5660 5654 5651 5649 5643 5636 5629 5624 5623 5614 5608 5603 5599 5595 5589 5582 5576 5570 5563 5556 5549 5542 5535 5528 5522 5516 5510 5503 5497 5492 5485 5479 5473 5466 5460 5455 5449 5444 5440 5435 5433 5429
5651 5646 5639 5634 5634 5628 5624 5618 5614 5607 5602 5595 5588 5583 5577 5573 5566 5560 5553 5547 5541 5533 5527 5521 5516 5510 5507 5500 5493 5486 5480 5473 5465 5458 5453 5446 5439 5433 5426 5420 5414 5408 5403 5396
5634 5629 5623 5617 5614 5609 5605 5600 5594 5588 5581 5574 5569 5563 5556 5549 5543 5537 5532 5526 5520 5515 5509 5502 5495 5491 5487 5480 5473 5465 5458 5449 5442 5436 5431 5423 5416 5409 5400 5391 5385 5378 5372 5366
5616 5612 5610 5605 5598 5593 5588 5585 5575 5569 5563 5556 5549 5544 5537 5533 5527 5521 5515 5510 5505 5499 5491 5483 5475 5470 5465 5458 5450 5443 5436 5430 5422 5414 5408 5399 5389 5380 5373 5365 5359 5353 5347 5342
5600 5592 5589 5584 5578 5574 5569 5563 5558 5550 5543 5536 5532 5525 5520 5516 5510 5505 5499 5492 5486 5479 5473 5465 5457 5449 5444 5439 5433 5424 5416 5408 5398 5388 5379 5372 5364 5357 5351 5343 5338 5333 5329 5325
5580 5572 5569 5565 5561 5556 5550 5546 5538 5532 5527 5523 5518 5512 5506 5500 5493 5486 5480 5474 5467 5461 5455 5446 5439 5432 5427 5419 5410 5402 5392 5383 5374 5366 5358 5351 5344 5337 5332 5326 5321 5317 5314 5310
5565 5556 5549 5548 5540 5539 5533 5528 5521 5515 5509 5505 5500 5494 5487 5480 5474 5470 5465 5459 5452 5446 5441 5431 5421 5413 5407 5399 5389 5380 5371 5364 5356 5348 5339 5331 5326 5321 5315 5310 5307 5302 5298 5295
5549 5545 5533 5527 5526 5521 5515 5509 5503 5497 5492 5486 5481 5476 5471 5467 5462 5456 5449 5444 5437 5430 5422 5415 5405 5396 5389 5380 5371 5363 5355 5346 5338 5331 5323 5316 5311 5306 5301 5296 5292 5288 5284 5281
5530 5530 5518 5514 5511 5506 5499 5493 5488 5482 5476 5471 5468 5463 5460 5455 5449 5443 5436 5429 5421 5414 5407 5400 5390 5381 5370 5361 5354 5346 5339 5332 5324 5317 5310 5304 5298 5292 5288 5282 5277 5273 5268 5264
5516 5512 5505 5499 5495 5490 5486 5480 5474 5469 5463 5458 5454 5449 5443 5439 5433 5427 5421 5415 5407 5398 5391 5384 5376 5366 5354 5346 5339 5333 5326 5319 5312 5305 5298 5292 5285 5279 5273 5267 5262 5258 5254 5250
5501 5498 5492 5487 5483 5478 5472 5466 5460 5454 5450 5444 5440 5435 5429 5423 5417 5410 5405 5399 5394 5386 5377 5369 5361 5351 5343 5336 5329 5322 5315 5308 5301 5294 5285 5278 5272 5267 5259 5255 5251 5246 5242 5239
5488 5484 5479 5475 5470 5466 5460 5454 5448 5444 5439 5433 5427 5421 5415 5410 5404 5399 5393 5388 5381 5373 5365 5357 5349 5341 5335 5327 5319 5312 5305 5299 5290 5282 5275 5269 5263 5258 5255 5247 5241 5237 5234 5231
5475 5471 5468 5463 5460 5455 5449 5444 5439 5434 5428 5422 5415 5409 5405 5400 5397 5391 5385 5378 5371 5363 5354 5346 5339 5332 5326 5318 5310 5304 5297 5288 5281 5274 5268 5262 5257 5252 5247 5243 5239 5233 5228 5225
5466 5461 5458 5455 5451 5446 5440 5435 5432 5426 5421 5415 5408 5401 5397 5394 5389 5383 5377 5370 5361 5352 5345 5338 5331 5324 5317 5309 5302 5296 5289 5281 5274 5268 5262 5256 5252 5247 5242 5238 5234 5230 5226 5222
5455 5452 5448 5445 5441 5436 5430 5427 5423 5418 5413 5409 5403 5398 5393 5388 5382 5376 5368 5360 5353 5344 5337 5330 5324 5317 5310 5302 5296 5290 5282 5275 5269 5263 5257 5252 5248 5243 5238 5234 5230 5227 5224 5221
5448 5445 5440 5437 5431 5427 5422 5418 5415 5411 5407 5402 5398 5392 5387 5381 5375 5368 5360 5351 5344 5335 5329 5323 5317 5310 5303 5297 5291 5284 5277 5271 5264 5259 5254 5249 5245 5239 5234 5231 5228 5226 5223 5220
5438 5434 5429 5425 5421 5417 5414 5408 5404 5400 5396 5393 5388 5383 5377 5371 5366 5359 5351 5344 5337 5328 5321 5316 5310 5304 5297 5291 5285 5278 5272 5266 5261 5256 5251 5247 5242 5237 5233 5231 5228 5225 5222 5220
5427 5423 5419 5414 5409 5405 5401 5396 5392 5388 5384 5380 5377 5373 5367 5362 5356 5350 5343 5335 5328 5323 5315 5309 5304 5297 5291 5285 5279 5273 5268 5262 5257 5253 5248 5244 5239 5235 5232 5230 5228 5225 5222 5220
5413 5409 5405 5401 5397 5392 5388 5383 5379 5375 5371 5367 5363 5359 5356 5351 5345 5340 5333 5327 5320 5315 5308 5302 5298 5292 5285 5280 5274 5269 5263 5258 5254 5250 5245 5241 5237 5233 5231 5229 5228 5226 5223 5221
5402 5398 5393 5389 5384 5379 5374 5371 5367 5363 5358 5353 5349 5346 5342 5339 5334 5329 5324 5319 5312 5306 5300 5295 5291 5285 5280 5275 5270 5265 5259 5255 5251 5247 5243 5239 5234 5231 5229 5228 5227 5225 5223 5222
5388 5384 5379 5375 5370 5366 5361 5358 5353 5349 5344 5340 5335 5331 5329 5325 5322 5317 5312 5308 5304 5299 5293 5288 5284 5279 5274 5270 5265 5260 5255 5251 5247 5244 5240 5236 5232 5228 5226 5225 5224 5223 5222 5221
5373 5369 5364 5360 5355 5352 5347 5343 5339 5334 5330 5325 5321 5317 5314 5311 5308 5306 5304 5298 5293 5289 5285 5281 5277 5272 5268 5264 5260 5255 5250 5247 5243 5240 5237 5233 5229 5225 5223 5222 5222 5221 5220 5219
5355 5350 5346 5341 5338 5334 5331 5327 5323 5318 5313 5309 5305 5301 5300 5299 5296 5292 5289 5287 5284 5280 5276 5272 5269 5265 5262 5258 5254 5250 5246 5242 5240 5236 5234 5231 5227 5223 5220 5218 5218 5218 5217 5217
5338 5334 5330 5325 5321 5317 5314 5310 5306 5302 5297 5293 5288 5285 5282 5280 5280 5280 5277 5274 5272 5270 5267 5264 5260 5258 5255 5252 5248 5245 5241 5238 5236 5233 5230 5227 5223 5220 5218 5215 5214 5214 5214 5214
5323 5318 5313 5308 5304 5300 5296 5293 5289 5285 5282 5279 5275 5271 5268 5265 5264 5263 5263 5261 5260 5258 5257 5255 5252 5250 5248 5245 5242 5239 5236 5233 5231 5229 5226 5224 5221 5218 5216 5213 5211 5209 5209 5210
5307 5301 5297 5293 5288 5283 5278 5274 5271 5268 5264 5262 5261 5257 5254 5252 5250 5249 5248 5248 5248 5247 5246 5245 5244 5242 5240 5238 5236 5233 5231 5228 5226 5224 5222 5220 5218 5216 5213 5210 5207 5205 5203 5203